星链-11498 (STARLINK-11498)

导读

STARLINK-11498是美国太空探索技术公司(SpaceX)星链互联网项目中的一颗低轨卫星,于2024年12月8日发射升空,目前在轨运行。它运行在近地轨道,近地点约355公里,远地点约358公里,轨道倾角43度,属于星链第二代部署批次。作为全球卫星互联网星座的组成部分,它与其他星链卫星协同,旨在为全球提供高速低延迟宽带服务,重点覆盖偏远地区,同时也可为航空、军事等领域提供通信支持。

基本信息
目录编号:
62276
目录名称:
STARLINK-11498
国际标识:
2024-237K
轨道中心:
EARTH
卫星名称:
星链-11498
卫星全名:
星链-11498 (STARLINK-11498)
卫星状态:
在轨 (已飞行636 天)
发射日期:
2024-12-08 UTC
国别 :
美国 (US)
星等 :
--
轨道信息
数据来源 国际轨道数据
星历时间: 2026-09-05T04:57:39+0800
10小时前
查看轨道信息
半长轴: 6734.558km
偏心率: 0.0002268
轨道倾角: 43.001°
近地点辐角 271.854°
升交点赤经 56.509°
平近点角 88.207°
近地点: 354.893km
远地点: 357.949km
周期: 91.669分钟
每日圈数: 15.708661
详细信息
固有亮度:
5
最大亮度:
2.5
卫星平台:
Starlink V1.0
覆盖范围:
全球
运营商:
太空探索技术公司
运营商所在国:
美国
制造商(研发单位):
太空探索技术公司
制造商所在国:
美国
使用方式:
暂无
卫星简介
Starlink 计划是 SpaceX 推出的全球卫星互联网项目,通过发射低轨道卫星,为全球尤其是偏远地区提供高速、低延迟的互联网服务。自 2019 年起,Starlink 已部署数千颗卫星,旨在缩小全球数字鸿沟,推动互联网普及。该项目还为军事、航空等行业提供通信支持,带来广泛经济效益。
2D轨道图
3D轨道图
轨道高度分析图
轨道倾角分析图
轨道综合分析图
查看轨道综合分析图